WetterOnline ( https://www.wetteronline.de )

Wetter aktuell Turin

Aktuelles Wetter: Torino-Bric Della Croce (710m)

6-stündlich | Neueste Meldungen
Ortszeit Temperatur Wetter
Do, 30.05. 14:00 19.2° C bewölkt
Do, 30.05. 8:00 15.6° C wolkig
Do, 30.05. 2:00 16.8° C -
Mi, 29.05. 20:00 18.7° C wolkig
Mi, 29.05. 14:00 17.9° C leicht bewölkt
Mi, 29.05. 8:00 16.0° C wolkig
Mi, 29.05. 2:00 16.7° C -
Di, 28.05. 20:00 19.0° C fast wolkenlos
Ortszeit Temperatur Wetter
Do, 30.05. 17:00 18.5° C leichter Regen
Do, 30.05. 16:00 20.0° C wolkig
Do, 30.05. 15:00 18.5° C bewölkt
Do, 30.05. 14:00 19.2° C bewölkt
Do, 30.05. 13:00 18.3° C bewölkt
Do, 30.05. 12:00 16.8° C bewölkt
Do, 30.05. 11:00 16.4° C bewölkt
Ortszeit Relative Feuchte Sichtweite
Do, 30.05. 14:00 82% 12 km
Do, 30.05. 8:00 88% 12 km
Do, 30.05. 2:00 81% -
Mi, 29.05. 20:00 79% 13 km
Mi, 29.05. 14:00 84% 10 km
Mi, 29.05. 8:00 83% 10 km
Mi, 29.05. 2:00 70% -
Di, 28.05. 20:00 66% 30 km
Ortszeit Relative Feuchte Sichtweite
Do, 30.05. 17:00 81% 12 km
Do, 30.05. 16:00 78% 15 km
Do, 30.05. 15:00 82% 12 km
Do, 30.05. 14:00 82% 12 km
Do, 30.05. 13:00 81% 12 km
Do, 30.05. 12:00 87% 12 km
Do, 30.05. 11:00 88% 12 km
Ortszeit Niederschlagsmenge Niederschlagsart
Do, 30.05. 14:00 0.0 l/m2 in 6 Std. -
Do, 30.05. 8:00 0.0 l/m2 in 12 Std. -
Do, 30.05. 2:00 0.0 l/m2 in 6 Std. -
Mi, 29.05. 20:00 0.0 l/m2 in 12 Std. -
Mi, 29.05. 14:00 0.0 l/m2 in 6 Std. -
Mi, 29.05. 8:00 0.0 l/m2 in 12 Std. -
Mi, 29.05. 2:00 0.0 l/m2 in 6 Std. -
Di, 28.05. 20:00 0.0 l/m2 in 12 Std. -
Ortszeit Niederschlagsmenge Niederschlagsart
Do, 30.05. 17:00 keine Meldung -
Do, 30.05. 16:00 keine Meldung -
Do, 30.05. 15:00 keine Meldung -
Do, 30.05. 14:00 keine Meldung -
Do, 30.05. 13:00 keine Meldung -
Do, 30.05. 12:00 keine Meldung -
Do, 30.05. 11:00 keine Meldung -
Ortszeit Stärke Spitze Richtung
km/h Bft. km/h Grad Sektor
Do, 30.05. 14:00 17 3 - 40° NO
Do, 30.05. 8:00 4 1 - - -
Do, 30.05. 2:00 4 1 - - -
Mi, 29.05. 20:00 4 1 - 340° N
Mi, 29.05. 14:00 2 1 - 280° W
Mi, 29.05. 8:00 4 1 - - -
Mi, 29.05. 2:00 9 2 - 50° NO
Di, 28.05. 20:00 9 2 - 100° O
Ortszeit Stärke Spitze Richtung
km/h Bft. km/h Grad Sektor
Do, 30.05. 17:00 17 3 - 330° NW
Do, 30.05. 16:00 15 3 - 340° N
Do, 30.05. 15:00 19 3 - 340° N
Do, 30.05. 14:00 17 3 - 40° NO
Do, 30.05. 13:00 15 3 - 40° NO
Do, 30.05. 12:00 4 1 - uml. uml.
Do, 30.05. 11:00 15 3 - 10° N
Ortszeit Untergrenze Bedeckung Gattung
total tief tief mittel hoch
Do, 30.05. 14:00 750 m 7/8 7/8 Sc - -
Do, 30.05. 8:00 750 m 7/8 7/8 Sc - -
Do, 30.05. 2:00 - - - - - -
Mi, 29.05. 20:00 1200 m 6/8 1/8 Cu As Ci
Mi, 29.05. 14:00 600 m 3/8 3/8 Cu - -
Mi, 29.05. 8:00 1200 m 6/8 4/8 Cu Ac -
Mi, 29.05. 2:00 - - - - - -
Di, 28.05. 20:00 6000 m 1/8 1/8 - - Ci
Ortszeit Bedeckungsgrad in Achtel und Wolkenuntergrenze
Do, 30.05. 17:00 7(900m)
Do, 30.05. 16:00 6(900m)
Do, 30.05. 15:00 7(900m)
Do, 30.05. 14:00 7(750m)
Do, 30.05. 13:00 7(750m)
Do, 30.05. 12:00 7(750m)
Do, 30.05. 11:00 7(750m)
Ortszeit Stationsdruck (hPa) Tendenz (hPa in 3 Std.)
Do, 30.05. 14:00 925 - 1,1
Do, 30.05. 8:00 926 - 0,4
Do, 30.05. 2:00 928 - 2,1
Mi, 29.05. 20:00 930 - 0,8
Mi, 29.05. 14:00 933 - 1,0
Mi, 29.05. 8:00 934 + 0,3
Mi, 29.05. 2:00 934 + 0,4
Di, 28.05. 20:00 933 - 0,2
Ortszeit Stationsdruck (hPa) Tendenz (hPa in 3 Std.)
Do, 30.05. 17:00 923 - 1,7
Do, 30.05. 16:00 924 - 1,7
Do, 30.05. 15:00 924 - 1,7
Do, 30.05. 14:00 925 - 1,1
Do, 30.05. 13:00 925 - 0,8
Do, 30.05. 12:00 926 - 0,2
Do, 30.05. 11:00 926 0,0
Ortszeit Schneehöhe (cm)
Do, 30.05. 14:00 -
Do, 30.05. 8:00 0
Do, 30.05. 2:00 -
Mi, 29.05. 20:00 -
Mi, 29.05. 14:00 -
Mi, 29.05. 8:00 0
Mi, 29.05. 2:00 -
Di, 28.05. 20:00 -
Ortszeit Schneehöhe (cm)
Do, 30.05. 17:00 -
Do, 30.05. 16:00 -
Do, 30.05. 15:00 -
Do, 30.05. 14:00 -
Do, 30.05. 13:00 -
Do, 30.05. 12:00 -
Do, 30.05. 11:00 -
Link zu dieser Seite / Seite empfehlen

Das Wetter in ...